Time,TemperatureF,DewpointF,PressureIn,WindDirection,WindDirectionDegrees,WindSpeedMPH,WindSpeedGustMPH,Humidity,HourlyPrecipIn,Conditions,Clouds,dailyrainin,SoftwareType,DateUTC
2013-06-14 00:02:00,68.0,63.0,-100.00,East,95,0.0,0.0,84,-99.99,,,-99.99,,2013-06-14 05:02:00,
2013-06-14 00:11:00,68.0,63.0,-100.00,East,85,0.0,0.0,84,-99.99,,,-99.99,,2013-06-14 05:11:00,
2013-06-14 00:22:00,68.0,63.0,-100.00,East,85,0.0,0.0,84,-99.99,,,-99.99,,2013-06-14 05:22:00,
2013-06-14 00:34:00,67.0,63.0,-100.00,ENE,75,0.0,0.0,86,-99.99,,,-99.99,,2013-06-14 05:34:00,
2013-06-14 00:43:00,67.0,62.0,-100.00,ESE,110,0.0,0.0,86,-99.99,,,-99.99,,2013-06-14 05:43:00,
2013-06-14 00:52:00,67.0,62.0,-100.00,ESE,110,0.0,0.0,86,-99.99,,,-99.99,,2013-06-14 05:52:00,
2013-06-14 01:02:00,65.0,64.0,-100.00,East,95,0.0,0.0,95,-99.99,,,-99.99,,2013-06-14 06:02:00,
2013-06-14 01:33:00,63.0,63.0,-100.00,West,265,0.0,0.0,99,-99.99,,,-99.99,,2013-06-14 06:33:00,
2013-06-14 01:43:00,63.0,63.0,-100.00,WNW,295,0.0,0.0,99,-99.99,,,-99.99,,2013-06-14 06:43:00,
2013-06-14 01:52:00,63.0,63.0,-100.00,WNW,295,0.0,0.0,99,-99.99,,,-99.99,,2013-06-14 06:52:00,
2013-06-14 02:02:00,63.0,62.0,-100.00,WNW,285,0.0,0.0,99,-99.99,,,-99.99,,2013-06-14 07:02:00,
2013-06-14 02:12:00,62.0,62.0,-100.00,NW,315,0.0,0.0,99,-99.99,,,-99.99,,2013-06-14 07:12:00,
2013-06-14 02:22:00,62.0,62.0,-100.00,NW,315,0.0,0.0,99,-99.99,,,-99.99,,2013-06-14 07:22:00,
2013-06-14 02:33:00,61.0,61.0,-100.00,WNW,300,0.0,0.0,99,-99.99,,,-99.99,,2013-06-14 07:33:00,
2013-06-14 02:43:00,62.0,61.0,-100.00,SW,215,0.0,0.0,99,-99.99,,,-99.99,,2013-06-14 07:43:00,
2013-06-14 02:53:00,62.0,61.0,-100.00,SW,215,0.0,0.0,99,-99.99,,,-99.99,,2013-06-14 07:53:00,
2013-06-14 03:02:00,61.0,61.0,-100.00,East,80,0.0,0.0,99,-99.99,,,-99.99,,2013-06-14 08:02:00,
2013-06-14 03:12:00,61.0,61.0,-100.00,NE,50,0.0,0.0,99,-99.99,,,-99.99,,2013-06-14 08:12:00,
2013-06-14 03:23:00,61.0,61.0,-100.00,NE,50,0.0,0.0,99,-99.99,,,-99.99,,2013-06-14 08:23:00,
2013-06-14 03:33:00,61.0,61.0,-100.00,ESE,110,0.0,0.0,99,-99.99,,,-99.99,,2013-06-14 08:33:00,
2013-06-14 03:43:00,61.0,60.0,-100.00,East,80,0.0,0.0,99,-99.99,,,-99.99,,2013-06-14 08:43:00,
2013-06-14 03:53:00,61.0,60.0,-100.00,East,80,0.0,0.0,99,-99.99,,,-99.99,,2013-06-14 08:53:00,
2013-06-14 04:02:00,60.0,60.0,-100.00,NE,55,0.0,0.0,99,-99.99,,,-99.99,,2013-06-14 09:02:00,
2013-06-14 04:12:00,60.0,60.0,-100.00,East,80,0.0,0.0,99,-99.99,,,-99.99,,2013-06-14 09:12:00,
2013-06-14 04:22:00,60.0,60.0,-100.00,East,80,0.0,0.0,99,-99.99,,,-99.99,,2013-06-14 09:22:00,
2013-06-14 04:33:00,60.0,60.0,-100.00,East,85,0.0,0.0,99,-99.99,,,-99.99,,2013-06-14 09:33:00,
2013-06-14 04:43:00,61.0,60.0,-100.00,ESE,105,0.0,0.0,99,-99.99,,,-99.99,,2013-06-14 09:43:00,
2013-06-14 04:53:00,61.0,60.0,-100.00,ESE,105,0.0,0.0,99,-99.99,,,-99.99,,2013-06-14 09:53:00,
2013-06-14 05:01:00,61.0,61.0,-100.00,East,100,0.0,0.0,99,-99.99,,,-99.99,,2013-06-14 10:01:00,
2013-06-14 05:11:00,62.0,61.0,-100.00,East,100,0.0,0.0,99,-99.99,,,-99.99,,2013-06-14 10:11:00,
2013-06-14 05:22:00,62.0,61.0,-100.00,East,100,0.0,0.0,99,-99.99,,,-99.99,,2013-06-14 10:22:00,
2013-06-14 05:34:00,61.0,61.0,-100.00,ESE,105,0.0,0.0,99,-99.99,,,-99.99,,2013-06-14 10:34:00,
2013-06-14 05:43:00,61.0,61.0,-100.00,East,100,0.0,0.0,99,-99.99,,,-99.99,,2013-06-14 10:43:00,
2013-06-14 05:53:00,61.0,61.0,-100.00,East,100,0.0,0.0,99,-99.99,,,-99.99,,2013-06-14 10:53:00,
2013-06-14 06:02:00,61.0,61.0,-100.00,East,100,0.0,0.0,99,-99.99,,,-99.99,,2013-06-14 11:02:00,
2013-06-14 06:11:00,61.0,61.0,-100.00,East,100,0.0,0.0,99,-99.99,,,-99.99,,2013-06-14 11:11:00,
2013-06-14 06:23:00,61.0,61.0,-100.00,East,100,0.0,0.0,99,-99.99,,,-99.99,,2013-06-14 11:23:00,
2013-06-14 06:32:00,61.0,61.0,-100.00,East,95,0.0,0.0,98,-99.99,,,-99.99,,2013-06-14 11:32:00,
2013-06-14 06:43:00,62.0,61.0,-100.00,East,100,0.0,0.0,95,-99.99,,,-99.99,,2013-06-14 11:43:00,
2013-06-14 06:52:00,62.0,61.0,-100.00,East,100,0.0,0.0,95,-99.99,,,-99.99,,2013-06-14 11:52:00,
2013-06-14 07:02:00,63.0,60.0,-100.00,East,100,0.0,0.0,90,-99.99,,,-99.99,,2013-06-14 12:02:00,
2013-06-14 07:12:00,65.0,60.0,-100.00,East,100,0.0,0.0,86,-99.99,,,-99.99,,2013-06-14 12:12:00,
2013-06-14 07:22:00,65.0,60.0,-100.00,East,100,0.0,0.0,86,-99.99,,,-99.99,,2013-06-14 12:22:00,
2013-06-14 07:33:00,65.0,59.0,-100.00,East,100,0.0,0.0,80,-99.99,,,-99.99,,2013-06-14 12:33:00,
2013-06-14 07:43:00,66.0,59.0,-100.00,ESE,110,0.0,0.0,78,-99.99,,,-99.99,,2013-06-14 12:43:00,
2013-06-14 07:52:00,66.0,59.0,-100.00,ESE,110,0.0,0.0,78,-99.99,,,-99.99,,2013-06-14 12:52:00,
2013-06-14 08:02:00,67.0,59.0,-100.00,ESE,110,0.0,0.0,76,-99.99,,,-99.99,,2013-06-14 13:02:00,
2013-06-14 08:11:00,68.0,59.0,-100.00,ESE,110,0.0,0.0,73,-99.99,,,-99.99,,2013-06-14 13:11:00,
2013-06-14 08:22:00,68.0,59.0,-100.00,ESE,110,0.0,0.0,73,-99.99,,,-99.99,,2013-06-14 13:22:00,
2013-06-14 08:33:00,68.0,58.0,-100.00,East,100,0.0,0.0,71,-99.99,,,-99.99,,2013-06-14 13:33:00,
2013-06-14 08:43:00,70.0,57.0,-100.00,East,100,0.0,0.0,65,-99.99,,,-99.99,,2013-06-14 13:43:00,
2013-06-14 08:53:00,70.0,57.0,-100.00,East,100,0.0,0.0,65,-99.99,,,-99.99,,2013-06-14 13:53:00,
2013-06-14 09:02:00,71.0,57.0,-100.00,SE,125,0.0,0.0,61,-99.99,,,-99.99,,2013-06-14 14:02:00,
2013-06-14 09:11:00,72.0,56.0,-100.00,East,90,0.0,0.0,59,-99.99,,,-99.99,,2013-06-14 14:11:00,
2013-06-14 09:22:00,72.0,56.0,-100.00,East,90,0.0,0.0,59,-99.99,,,-99.99,,2013-06-14 14:22:00,
2013-06-14 09:34:00,72.0,57.0,-100.00,ESE,120,0.0,0.0,59,-99.99,,,-99.99,,2013-06-14 14:34:00,
2013-06-14 09:43:00,74.0,57.0,-100.00,South,180,0.0,0.0,57,-99.99,,,-99.99,,2013-06-14 14:43:00,
2013-06-14 09:52:00,74.0,57.0,-100.00,South,180,0.0,0.0,57,-99.99,,,-99.99,,2013-06-14 14:52:00,
2013-06-14 10:01:00,75.0,59.0,-100.00,SE,145,0.0,0.0,57,-99.99,,,-99.99,,2013-06-14 15:01:00,
2013-06-14 10:11:00,75.0,57.0,-100.00,SE,130,0.0,0.0,54,-99.99,,,-99.99,,2013-06-14 15:11:00,
2013-06-14 10:23:00,75.0,57.0,-100.00,SE,130,0.0,0.0,54,-99.99,,,-99.99,,2013-06-14 15:23:00,
2013-06-14 10:33:00,75.0,58.0,-100.00,ESE,115,0.0,0.0,55,-99.99,,,-99.99,,2013-06-14 15:33:00,
2013-06-14 10:44:00,76.0,59.0,-100.00,ESE,120,0.0,0.0,55,-99.99,,,-99.99,,2013-06-14 15:44:00,
2013-06-14 10:53:00,76.0,59.0,-100.00,ESE,120,0.0,0.0,55,-99.99,,,-99.99,,2013-06-14 15:53:00,
2013-06-14 11:01:00,78.0,59.0,-100.00,SSE,160,0.0,0.0,53,-99.99,,,-99.99,,2013-06-14 16:01:00,
2013-06-14 11:11:00,78.0,59.0,-100.00,South,190,0.0,0.0,53,-99.99,,,-99.99,,2013-06-14 16:11:00,
2013-06-14 11:22:00,78.0,59.0,-100.00,South,190,0.0,0.0,53,-99.99,,,-99.99,,2013-06-14 16:22:00,
2013-06-14 11:33:00,78.0,59.0,-100.00,ESE,105,0.0,0.0,52,-99.99,,,-99.99,,2013-06-14 16:33:00,
2013-06-14 11:43:00,79.0,59.0,-100.00,SE,130,0.0,0.0,51,-99.99,,,-99.99,,2013-06-14 16:43:00,
2013-06-14 11:53:00,79.0,59.0,-100.00,SE,130,0.0,0.0,51,-99.99,,,-99.99,,2013-06-14 16:53:00,
2013-06-14 12:02:00,79.0,59.0,-100.00,South,185,0.0,0.0,50,-99.99,,,-99.99,,2013-06-14 17:02:00,
2013-06-14 12:11:00,80.0,59.0,-100.00,ESE,115,0.0,0.0,49,-99.99,,,-99.99,,2013-06-14 17:11:00,
2013-06-14 12:22:00,80.0,59.0,-100.00,ESE,115,0.0,0.0,49,-99.99,,,-99.99,,2013-06-14 17:22:00,
2013-06-14 12:34:00,80.0,59.0,-100.00,ENE,75,0.0,0.0,49,-99.99,,,-99.99,,2013-06-14 17:34:00,
2013-06-14 12:43:00,80.0,59.0,-100.00,SE,135,0.0,0.0,48,-99.99,,,-99.99,,2013-06-14 17:43:00,
2013-06-14 12:53:00,80.0,59.0,-100.00,SE,135,0.0,0.0,48,-99.99,,,-99.99,,2013-06-14 17:53:00,
2013-06-14 13:02:00,80.0,58.0,-100.00,East,95,0.0,0.0,47,-99.99,,,-99.99,,2013-06-14 18:02:00,
2013-06-14 13:11:00,80.0,59.0,-100.00,SE,140,0.0,0.0,49,-99.99,,,-99.99,,2013-06-14 18:11:00,
2013-06-14 13:22:00,80.0,59.0,-100.00,SE,140,0.0,0.0,49,-99.99,,,-99.99,,2013-06-14 18:22:00,
2013-06-14 13:32:00,80.0,59.0,-100.00,NE,50,0.0,0.0,49,-99.99,,,-99.99,,2013-06-14 18:32:00,
2013-06-14 13:43:00,80.0,59.0,-100.00,SSE,150,0.0,0.0,49,-99.99,,,-99.99,,2013-06-14 18:43:00,
2013-06-14 13:52:00,80.0,59.0,-100.00,SSE,150,0.0,0.0,49,-99.99,,,-99.99,,2013-06-14 18:52:00,
2013-06-14 14:01:00,80.0,61.0,-100.00,SW,235,0.0,0.0,53,-99.99,,,-99.99,,2013-06-14 19:01:00,
2013-06-14 14:11:00,79.0,59.0,-100.00,West,275,0.0,0.0,52,-99.99,,,-99.99,,2013-06-14 19:11:00,
2013-06-14 14:22:00,79.0,59.0,-100.00,West,275,0.0,0.0,52,-99.99,,,-99.99,,2013-06-14 19:22:00,
2013-06-14 14:32:00,78.0,61.0,-100.00,West,280,0.0,0.0,55,-99.99,,,-99.99,,2013-06-14 19:32:00,
2013-06-14 14:43:00,78.0,62.0,-100.00,South,185,0.0,0.0,59,-99.99,,,-99.99,,2013-06-14 19:43:00,
2013-06-14 14:53:00,78.0,62.0,-100.00,South,185,0.0,0.0,59,-99.99,,,-99.99,,2013-06-14 19:53:00,
2013-06-14 15:02:00,77.0,65.0,-100.00,SE,130,0.0,0.0,67,-99.99,,,-99.99,,2013-06-14 20:02:00,
2013-06-14 15:11:00,76.0,64.0,-100.00,East,100,0.0,0.0,67,-99.99,,,-99.99,,2013-06-14 20:11:00,
2013-06-14 15:22:00,76.0,64.0,-100.00,East,100,0.0,0.0,67,-99.99,,,-99.99,,2013-06-14 20:22:00,
2013-06-14 15:33:00,76.0,65.0,-100.00,East,95,0.0,0.0,70,-99.99,,,-99.99,,2013-06-14 20:33:00,
2013-06-14 15:43:00,75.0,65.0,-100.00,South,170,0.0,0.0,71,-99.99,,,-99.99,,2013-06-14 20:43:00,
2013-06-14 15:53:00,75.0,65.0,-100.00,South,170,0.0,0.0,71,-99.99,,,-99.99,,2013-06-14 20:53:00,
2013-06-14 16:02:00,76.0,65.0,-100.00,SE,135,0.0,0.0,69,-99.99,,,-99.99,,2013-06-14 21:02:00,
2013-06-14 16:11:00,75.0,66.0,-100.00,SE,125,0.0,0.0,72,-99.99,,,-99.99,,2013-06-14 21:11:00,
2013-06-14 16:22:00,75.0,66.0,-100.00,SE,125,0.0,0.0,72,-99.99,,,-99.99,,2013-06-14 21:22:00,
2013-06-14 16:34:00,75.0,64.0,-100.00,ESE,105,0.0,0.0,69,-99.99,,,-99.99,,2013-06-14 21:34:00,
2013-06-14 16:42:00,75.0,63.0,-100.00,NE,50,0.0,0.0,67,-99.99,,,-99.99,,2013-06-14 21:42:00,
2013-06-14 16:52:00,75.0,63.0,-100.00,NE,50,0.0,0.0,67,-99.99,,,-99.99,,2013-06-14 21:52:00,
2013-06-14 17:01:00,76.0,63.0,-100.00,East,100,0.0,0.0,64,-99.99,,,-99.99,,2013-06-14 22:01:00,
2013-06-14 17:11:00,76.0,64.0,-100.00,South,180,0.0,0.0,65,-99.99,,,-99.99,,2013-06-14 22:11:00,
2013-06-14 17:22:00,76.0,64.0,-100.00,South,180,0.0,0.0,65,-99.99,,,-99.99,,2013-06-14 22:22:00,
2013-06-14 17:33:00,76.0,65.0,-100.00,SSW,205,0.0,0.0,67,-99.99,,,-99.99,,2013-06-14 22:33:00,
2013-06-14 17:43:00,76.0,64.0,-100.00,WSW,245,0.0,0.0,66,-99.99,,,-99.99,,2013-06-14 22:43:00,
2013-06-14 17:53:00,76.0,64.0,-100.00,WSW,245,0.0,0.0,66,-99.99,,,-99.99,,2013-06-14 22:53:00,
2013-06-14 18:02:00,75.0,65.0,-100.00,West,280,0.0,0.0,70,-99.99,,,-99.99,,2013-06-14 23:02:00,
2013-06-14 18:11:00,75.0,66.0,-100.00,WSW,255,0.0,0.0,74,-99.99,,,-99.99,,2013-06-14 23:11:00,
2013-06-14 18:22:00,75.0,66.0,-100.00,WSW,255,0.0,0.0,74,-99.99,,,-99.99,,2013-06-14 23:22:00,
2013-06-14 18:33:00,75.0,67.0,-100.00,SE,125,0.0,0.0,75,-99.99,,,-99.99,,2013-06-14 23:33:00,
2013-06-14 18:43:00,75.0,67.0,-100.00,South,175,0.0,0.0,75,-99.99,,,-99.99,,2013-06-14 23:43:00,
2013-06-14 18:52:00,75.0,67.0,-100.00,South,175,0.0,0.0,75,-99.99,,,-99.99,,2013-06-14 23:52:00,
2013-06-14 19:01:00,75.0,68.0,-100.00,NW,325,0.0,0.0,78,-99.99,,,-99.99,,2013-06-15 00:01:00,
2013-06-14 19:11:00,74.0,67.0,-100.00,North,0,0.0,0.0,78,-99.99,,,-99.99,,2013-06-15 00:11:00,
2013-06-14 19:23:00,74.0,67.0,-100.00,North,0,0.0,0.0,78,-99.99,,,-99.99,,2013-06-15 00:23:00,
2013-06-14 19:34:00,74.0,67.0,-100.00,North,0,0.0,0.0,78,-99.99,,,-99.99,,2013-06-15 00:34:00,
2013-06-14 19:43:00,74.0,68.0,-100.00,North,0,0.0,0.0,82,-99.99,,,-99.99,,2013-06-15 00:43:00,
2013-06-14 19:53:00,74.0,68.0,-100.00,North,0,0.0,0.0,82,-99.99,,,-99.99,,2013-06-15 00:53:00,
2013-06-14 20:01:00,73.0,68.0,-100.00,North,355,0.0,0.0,86,-99.99,,,-99.99,,2013-06-15 01:01:00,
2013-06-14 20:11:00,72.0,69.0,-100.00,NW,325,0.0,0.0,88,-99.99,,,-99.99,,2013-06-15 01:11:00,
2013-06-14 20:22:00,72.0,69.0,-100.00,NW,325,0.0,0.0,88,-99.99,,,-99.99,,2013-06-15 01:22:00,
2013-06-14 20:33:00,72.0,68.0,-100.00,NNW,335,0.0,0.0,88,-99.99,,,-99.99,,2013-06-15 01:33:00,
2013-06-14 20:43:00,71.0,68.0,-100.00,NE,40,0.0,0.0,90,-99.99,,,-99.99,,2013-06-15 01:43:00,
2013-06-14 20:54:00,71.0,68.0,-100.00,NE,40,0.0,0.0,90,-99.99,,,-99.99,,2013-06-15 01:54:00,
2013-06-14 21:02:00,71.0,68.0,-100.00,NE,50,0.0,0.0,90,-99.99,,,-99.99,,2013-06-15 02:02:00,
2013-06-14 21:33:00,69.0,69.0,-100.00,ENE,70,0.0,0.0,97,-99.99,,,-99.99,,2013-06-15 02:33:00,
2013-06-14 21:43:00,69.0,69.0,-100.00,ENE,60,0.0,0.0,99,-99.99,,,-99.99,,2013-06-15 02:43:00,
2013-06-14 21:53:00,69.0,69.0,-100.00,ENE,60,0.0,0.0,99,-99.99,,,-99.99,,2013-06-15 02:53:00,
2013-06-14 22:01:00,69.0,69.0,-100.00,SSE,160,0.0,0.0,99,-99.99,,,-99.99,,2013-06-15 03:01:00,
2013-06-14 22:11:00,68.0,68.0,-100.00,South,170,0.0,0.0,99,-99.99,,,-99.99,,2013-06-15 03:11:00,
2013-06-14 22:24:00,68.0,68.0,-100.00,South,170,0.0,0.0,99,-99.99,,,-99.99,,2013-06-15 03:24:00,
2013-06-14 22:32:00,69.0,68.0,-100.00,SSE,160,0.0,0.0,99,-99.99,,,-99.99,,2013-06-15 03:32:00,
2013-06-14 22:44:00,68.0,68.0,-100.00,South,170,0.0,0.0,99,-99.99,,,-99.99,,2013-06-15 03:44:00,
2013-06-14 22:53:00,68.0,68.0,-100.00,South,170,0.0,0.0,99,-99.99,,,-99.99,,2013-06-15 03:53:00,
2013-06-14 23:02:00,69.0,69.0,-100.00,SSE,150,0.0,0.0,99,-99.99,,,-99.99,,2013-06-15 04:02:00,
2013-06-14 23:12:00,69.0,68.0,-100.00,South,180,0.0,0.0,98,-99.99,,,-99.99,,2013-06-15 04:12:00,
2013-06-14 23:22:00,69.0,68.0,-100.00,South,180,0.0,0.0,98,-99.99,,,-99.99,,2013-06-15 04:22:00,
2013-06-14 23:34:00,69.0,68.0,-100.00,SE,125,0.0,0.0,96,-99.99,,,-99.99,,2013-06-15 04:34:00,
2013-06-14 23:43:00,69.0,68.0,-100.00,East,100,0.0,0.0,96,-99.99,,,-99.99,,2013-06-15 04:43:00,
2013-06-14 23:54:00,69.0,68.0,-100.00,East,100,0.0,0.0,96,-99.99,,,-99.99,,2013-06-15 04:54:00,